Tracking 22081 objects as of 4-Dec-2020
HD Live streaming from Space Station
objects crossing your sky now

CORVUS BC1

Track CORVUS BC1 now!
10-day predictions


NORAD ID: 42847
Int'l Code: 2017-042Y
Perigee: 590.5 km
Apogee: 605.4 km
Inclination: 97.5 °
Period: 96.5 minutes
Semi major axis: 6968 km
RCS: Unknown
Launch date: July 14, 2017
Source: United States (US)
Launch site: TYURATAM MISSILE AND SPACE COMPLEX (TTMTR)
aabbcc
Your satellite tracking list
Your tracking list is empty




NASA's NSSDC Master Catalog

Two Line Element Set (TLE):
1 42847U 17042Y   20338.54942555  .00000608  00000-0  64670-4 0  9995
2 42847  97.4979 214.4416 0010731  74.8590 285.3816 14.92285671184628
Source of the keplerian elements: AFSPC